Eugene, OR

12:19 PM PST on December 06, 2019 (GMT -0800)
Mahlon Sweet

Weather History for KEUG - July, 2019

Change the Weather History Date:

Sunday, July 21, 2019

  Actual Average Record
Temperature  
Mean Temperature 72 °F 68 °F  
Max Temperature 89 °F 84 °F 104 °F (1938)
Min Temperature 55 °F 52 °F 43 °F (1929)
Degree Days  
Heating Degree Days 0 1  
Month to date heating degree days 9 30  
Since 1 June heating degree days 84 187  
Since 1 July heating degree days 9 30  
Cooling Degree Days 7 4  
Month to date cooling degree days 65 57  
Year to date cooling degree days 107 81  
Since 1 June cooling degree days 106 76  
Growing Degree Days 22 (Base 50)    
Moisture  
Dew Point 53 °F    
Average Humidity 59    
Maximum Humidity 86    
Minimum Humidity 31    
Precipitation  
Precipitation 0.00 in 0.01 in 0.61 in (1993)
Month to date precipitation 0.23 0.42  
Year to date precipitation 22.65 25.28  
Sea Level Pressure  
Sea Level Pressure 29.97 in    
Wind  
Wind Speed 6 mph (SW)    
Max Wind Speed 15 mph    
Max Gust Speed 18 mph    
Visibility 10 miles    
Events      
T = Trace of Precipitation, MM = Missing Value Source: NWS Daily Summary

Daily Weather History Graph

Daily Weather History Graph

Search for Another Location

Airport or City:

Astronomy

Jul. 21, 2019 Rise Set
Actual Time 5:49 AM PDT 8:48 PM PDT
Civil Twilight 5:14 AM PDT 9:23 PM PDT
Nautical Twilight 4:30 AM PDT 10:07 PM PDT
Astronomical Twilight 3:38 AM PDT 10:58 PM PDT
Moon 11:36 PM PDT (7/21) 10:22 AM PDT (7/21)
Length of Visible Light 16h 08m
Length of Day
14h 59m
Waning Gibbous, 79% of the Moon is Illuminated
Jul 21
Waning Gibbous
Jul 24
Last Quarter
Jul 31
New
Aug 7
First Quarter
Aug 15
Full

Hourly Weather History & Observations

Time (PDT) Temp. Heat Index Dew Point Humidity Pressure Visibility Wind Dir Wind Speed Gust Speed Precip Events Conditions
12:54 AM 63.0 °F - 52.0 °F 67% 29.96 in 10.0 mi WSW 5.8 mph - N/A   Clear
1:54 AM 57.9 °F - 51.1 °F 78% 29.96 in 10.0 mi Calm Calm - N/A   Clear
2:54 AM 57.9 °F - 51.1 °F 78% 29.96 in 10.0 mi SW 4.6 mph - N/A   Clear
3:54 AM 55.9 °F - 50.0 °F 80% 29.97 in 10.0 mi SSW 6.9 mph - N/A   Clear
4:54 AM 55.9 °F - 51.1 °F 84% 29.98 in 10.0 mi South 8.1 mph - N/A   Clear
5:54 AM 55.0 °F - 50.0 °F 83% 30.00 in 10.0 mi South 8.1 mph - N/A   Partly Cloudy
6:54 AM 57.9 °F - 52.0 °F 81% 30.01 in 10.0 mi South 8.1 mph - N/A   Partly Cloudy
7:54 AM 61.0 °F - 53.1 °F 75% 30.02 in 10.0 mi South 6.9 mph - N/A   Partly Cloudy
8:54 AM 64.0 °F - 54.0 °F 70% 30.03 in 10.0 mi SSW 6.9 mph - N/A   Clear
9:54 AM 66.0 °F - 54.0 °F 65% 30.02 in 10.0 mi Variable 4.6 mph - N/A   Partly Cloudy
10:54 AM 71.1 °F - 54.0 °F 55% 30.01 in 10.0 mi SW 4.6 mph - N/A   Clear
11:54 AM 75.0 °F - 55.0 °F 50% 29.99 in 10.0 mi Variable 3.5 mph - N/A   Clear
12:54 PM 79.0 °F - 55.0 °F 44% 29.98 in 10.0 mi Variable 4.6 mph - N/A   Clear
1:54 PM 84.0 °F 82.5 °F 53.1 °F 34% 29.96 in 10.0 mi NNW 9.2 mph - N/A   Partly Cloudy
2:54 PM 87.1 °F 84.9 °F 53.1 °F 31% 29.95 in 10.0 mi NNE 9.2 mph - N/A   Partly Cloudy
3:54 PM 87.1 °F 85.1 °F 54.0 °F 32% 29.94 in 10.0 mi NNE 5.8 mph - N/A   Partly Cloudy
4:54 PM 89.1 °F 87.1 °F 55.0 °F 31% 29.92 in 10.0 mi Variable 4.6 mph - N/A   Partly Cloudy
5:54 PM 89.1 °F 87.3 °F 55.9 °F 32% 29.91 in 10.0 mi Variable 4.6 mph - N/A   Partly Cloudy
6:54 PM 84.0 °F 83.3 °F 57.0 °F 40% 29.91 in 10.0 mi WNW 12.7 mph - N/A   Partly Cloudy
7:54 PM 79.0 °F - 54.0 °F 42% 29.92 in 10.0 mi WNW 10.4 mph - N/A   Clear
8:54 PM 73.0 °F - 52.0 °F 48% 29.94 in 10.0 mi West 8.1 mph - N/A   Partly Cloudy
9:54 PM 70.0 °F - 51.1 °F 51% 29.97 in 10.0 mi WSW 5.8 mph - N/A   Partly Cloudy
10:54 PM 64.9 °F - 50.0 °F 58% 29.98 in 10.0 mi SW 4.6 mph - N/A   Scattered Clouds
11:54 PM 64.0 °F - 51.1 °F 63% 29.99 in 10.0 mi SW 5.8 mph - N/A   Clear